Fairbanks, AK

1:06 PM AKST on February 10, 2016 (GMT -0900)
Fairbanks International

Weather History for PAFA - August, 2013

Change the Weather History Date:

Saturday, August 24, 2013

  Actual Average Record
Temperature  
Mean Temperature 52 °F 54 °F  
Max Temperature 63 °F 64 °F 86 °F (1928)
Min Temperature 41 °F 44 °F 23 °F (1948)
Degree Days  
Heating Degree Days 13 11  
Month to date heating degree days 92 193  
Since 1 June heating degree days 232 461  
Since 1 July heating degree days 161 301  
Cooling Degree Days 0 0  
Month to date cooling degree days 24 0  
Year to date cooling degree days 226 55  
Since 1 June cooling degree days 213 54  
Growing Degree Days 4 (Base 50)    
Moisture  
Dew Point 38 °F    
Average Humidity 60    
Maximum Humidity 83    
Minimum Humidity 26    
Precipitation  
Precipitation 0.00 in 0.05 in 0.97 in (1961)
Month to date precipitation 1.92 1.50  
Year to date precipitation 5.70 7.19  
Snow  
Snow 0.00 in 0.00 in T in (1951)
Month to date snowfall 0.0 0.0  
Since 1 June snowfall 0.0 0.0  
Since 1 July snowfall 0.0 0.0  
Snow Depth 0.00 in    
Sea Level Pressure  
Sea Level Pressure 29.85 in    
Wind  
Wind Speed 6 mph (NNE)    
Max Wind Speed 13 mph    
Max Gust Speed -    
Visibility 10 miles    
Events      
T = Trace of Precipitation, MM = Missing Value Source: NWS Daily Summary

Daily Weather History Graph

Daily Weather History Graph

Search for Another Location

Airport or City:

Trip Planner

Search our weather history database for the weather conditions in past years. The results will help you decide how hot, cold, wet, or windy it might be!

Date:

Astronomy

Aug. 24, 2013 Rise Set
Actual Time 6:08 AM AKDT 9:36 PM AKDT
Civil Twilight 5:08 AM AKDT 10:35 PM AKDT
Nautical Twilight 3:32 AM AKDT 12:08 AM AKDT
Astronomical Twilight Sun does not rise Sun does not rise
Moon 9:33 PM AKDT (8/24) 12:15 PM AKDT (8/24)
Length of Visible Light 17h 27m
Length of Day
15h 28m
Waning Gibbous, 83% of the Moon is Illuminated
Aug 24
Waning Gibbous
Aug 28
Last Quarter
Sep 5
New
Sep 12
First Quarter
Sep 19
Full

Hourly Weather History & Observations

Time (AKDT) Temp. Windchill Dew Point Humidity Pressure Visibility Wind Dir Wind Speed Gust Speed Precip Events Conditions
12:53 AM 48.0 °F - 43.0 °F 83% 29.71 in 10.0 mi NNE 4.6 mph - N/A   Scattered Clouds
1:53 AM 46.0 °F 42.5 °F 41.0 °F 83% 29.74 in 10.0 mi North 6.9 mph - N/A   Scattered Clouds
2:53 AM 46.9 °F - 39.9 °F 77% 29.75 in 10.0 mi North 10.4 mph - N/A   Scattered Clouds
3:53 AM 46.0 °F 41.9 °F 39.9 °F 79% 29.76 in 10.0 mi North 8.1 mph - N/A   Scattered Clouds
4:53 AM 46.9 °F - 39.9 °F 77% 29.78 in 10.0 mi Calm Calm - N/A   Scattered Clouds
5:53 AM 45.0 °F 41.8 °F 39.9 °F 82% 29.80 in 10.0 mi NE 5.8 mph - N/A   Scattered Clouds
6:53 AM 46.9 °F - 39.9 °F 77% 29.82 in 10.0 mi NNE 4.6 mph - N/A   Scattered Clouds
7:53 AM 46.9 °F - 39.0 °F 74% 29.84 in 10.0 mi NNE 6.9 mph - N/A   Mostly Cloudy
8:53 AM 48.0 °F - 39.0 °F 71% 29.86 in 10.0 mi North 6.9 mph - N/A   Mostly Cloudy
9:53 AM 48.9 °F - 39.9 °F 71% 29.87 in 10.0 mi Calm Calm - N/A   Mostly Cloudy
10:53 AM 50.0 °F - 39.9 °F 68% 29.88 in 10.0 mi NNW 3.5 mph - N/A   Mostly Cloudy
11:53 AM 53.1 °F - 39.9 °F 61% 29.88 in 10.0 mi NW 6.9 mph - N/A   Scattered Clouds
12:53 PM 57.9 °F - 35.1 °F 42% 29.88 in 10.0 mi NNE 10.4 mph - N/A   Scattered Clouds
1:53 PM 57.0 °F - 34.0 °F 42% 29.88 in 10.0 mi North 6.9 mph - N/A   Mostly Cloudy
2:53 PM 60.1 °F - 36.0 °F 41% 29.88 in 10.0 mi Variable 6.9 mph - N/A   Partly Cloudy
3:53 PM 61.0 °F - 35.1 °F 38% 29.88 in 10.0 mi North 12.7 mph - N/A   Partly Cloudy
4:53 PM 63.0 °F - 37.0 °F 38% 29.87 in 10.0 mi NNW 6.9 mph - N/A   Mostly Cloudy
5:53 PM 57.0 °F - 37.0 °F 47% 29.88 in 10.0 mi NNE 8.1 mph - N/A   Mostly Cloudy
6:53 PM 60.1 °F - 35.1 °F 39% 29.88 in 10.0 mi NE 5.8 mph - N/A   Scattered Clouds
7:53 PM 57.9 °F - 35.1 °F 42% 29.88 in 10.0 mi ENE 9.2 mph - N/A   Partly Cloudy
8:53 PM 54.0 °F - 34.0 °F 47% 29.90 in 10.0 mi ENE 8.1 mph - N/A   Partly Cloudy
9:53 PM 48.9 °F - 35.1 °F 59% 29.91 in 10.0 mi East 6.9 mph - N/A   Partly Cloudy
10:53 PM 46.0 °F 42.5 °F 34.0 °F 63% 29.94 in 10.0 mi East 6.9 mph - N/A   Clear
11:53 PM 44.1 °F - 35.1 °F 71% 29.94 in 10.0 mi Calm Calm - N/A   Clear